Location: Winthrop
(48.4780°N, 120.1850°W)
Time: 21:04:02
(UTC-07:00)

Vanguard 2 - Pass Details

Date: 01 December 2023
Orbit: 552 x 2914 km, 32.9° (Epoch: 24 May)

Event Time Altitude Azimuth Distance (km) Brightness Sun altitude
Rises 18:47:10 0° 179° (S) 6,759 12.4 -25.6°
Maximum altitude 19:00:37 10° 140° (SE) 5,503 11.5 -27.8°
Enters shadow 19:01:10 10° 138° (SE) 5,483 11.5 -27.9°
